Location: Kershaw
(34.5481°N, 80.5823°W)
Time: 15:21:08
(UTC+00:00)

Transit 4A - Pass Details

Date: 03 October 2022
Orbit: 871 x 972 km, 66.8° (Epoch: 29 November)

Event Time Altitude Azimuth Distance (km) Brightness Sun altitude
Rises 01:38:35 0° 166° (SSE) 3,622 - -32.0°
Reaches altitude 10° 01:41:49 10° 150° (SSE) 2,666 - -32.7°
Maximum altitude 01:46:10 20° 105° (ESE) 2,015 - -33.5°
Drops below altitude 10° 01:50:28 10° 60° (ENE) 2,629 - -34.3°
Sets 01:53:36 0° 44° (NE) 3,557 - -34.9°
